Home > Weather > Hamamatsu > Past weeks

Flag for Japan Past Weather in Hamamatsu, Japan — Yesterday and Last 2 Weeks

Now
69 °F

Mild.


Feels Like: 69 °F
Forecast: 71 / 83 °F
Wind: 9 mph from East

Location: Omaezaki

Current Time: Jun 30, 2016 at 1:34:52 AM

Latest Report: Jun 30, 2016 at 12:00 AM


Visibility: 10 mi

Pressure: 29.95 "Hg

Humidity: 92%

Dew Point: 67 °F

Location of HamamatsuLocation

Past Weather in Hamamatsu — Graph

°F

Hamamatsu Temperature Yesterday

Maximum temperature yesterday: 75 °F (at 12:00 PM)
Minimum temperature yesterday: 68 °F (at 6:00 AM)
Average temperature yesterday: 70 °F

High & Low Weather Summary for the Past Weeks

 TemperatureHumidityPressure
High82 °F (Jun 18, 3:00 PM)100% (Jun 23, 5:00 AM)30.01 "Hg (Jun 23, 5:00 AM)
Low64 °F (Jun 28, 4:00 AM)50% (Jun 18, 4:00 PM)29.50 "Hg (Jun 23, 3:00 PM)
Average72 °F87%29.78 "Hg
* Reported Jun 15 12:00 AM — Jun 30 12:00 AM, Hamamatsu, Weather by CustomWeather, © 2016

Note: Actual official high and low records may vary slightly from our data, if they occured in-between our weather recording intervals... More about our weather records

Advertising

Hamamatsu Weather History for the Previous 24 Hours

Scroll right to see more
 ConditionsComfort  
Time TempWeatherWind HumidityBarometerVisibility
12:00 AM
Thu, Jun 30
69 °FMild.9 mph92%29.95 "Hg10 mi
11:00 PM
Wed, Jun 29
69 °FLight rain. Overcast.10 mph92%29.97 "Hg6 mi
10:00 PM70 °FMild.9 mph93%29.98 "Hg8 mi
9:00 PM70 °FMild.8 mph93%29.98 "Hg8 mi
8:00 PM70 °FMild.8 mph93%29.96 "Hg11 mi
7:00 PM69 °FLight rain. Overcast.10 mph94%29.95 "Hg9 mi
4:00 PM72 °FLight rain. Cloudy.8 mph85%29.97 "Hg9 mi
3:00 PM73 °FMild.10 mph83%29.97 "Hg12 mi
2:00 PM73 °FLight rain. Cloudy.12 mph82%29.95 "Hg12 mi
1:00 PM74 °FMild.13 mph81%29.96 "Hg9 mi
12:00 PM75 °FMild.12 mph83%29.97 "Hg10 mi
11:00 AM72 °FMild.3 mph89%29.97 "Hg11 mi
10:00 AM70 °FMild.5 mph93%29.98 "Hg12 mi
9:00 AM70 °FMild.5 mph93%29.98 "Hg12 mi
8:00 AM69 °FMild.8 mph95%29.98 "Hg12 mi
7:00 AM69 °FMild.3 mph96%29.97 "Hg7 mi
6:00 AM68 °FMild.8 mph97%29.96 "Hg4 mi
5:00 AM69 °FLight rain. Cloudy.3 mph97%29.96 "Hg1 mi
4:00 AM69 °FMild.8 mph93%29.94 "Hg6 mi
3:00 AM69 °FLight rain. Overcast.10 mph93%29.92 "Hg6 mi
2:00 AM69 °FMild.9 mph92%29.91 "Hg7 mi
1:00 AM69 °FMild.12 mph93%29.91 "Hg7 mi
Weather by CustomWeather, © 2016

See weather overviewHow to use our weather pages